Date String (YYYY-MM-DD hh:mm:ss) UTC,Instrument flags,Ambient pressure (hPa),Sample flow (lpm),Bypass flow (lpm),Sample temperature (°C),Ambient temperature (°C),ASC tube jacket temperature (°C),LED temperature (°C),Box temperature (°C),Sample RH (%),Span deviation,Mass concentration (μg/m³),Mass concentration (μg/m³),Mass concentration (μg/m³)
DateTimeUTC,F1_M11,P_M11,Q1_M11,Q2_M11,T1_M11,T2_M11,T3_M11,T4_M11,T5_M11,U1_M11,ZSPAN_M11,X0_M11,X2_M11,X1_M11
2022-07-22 02:00:00,,0826.5,5.00,0.00,29.3,27.7,00.0,38.0,31.2,20.9,0000.0,0012.27,0005.51,0004.15
2022-07-22 02:01:00,,0826.5,5.00,0.00,29.3,27.9,00.0,38.1,31.3,21.4,0000.0,0012.62,0005.48,0004.16
2022-07-22 02:02:00,,0826.5,5.00,0.00,29.4,28.1,00.0,38.1,31.4,22.0,0000.0,0012.92,0005.51,0004.16
2022-07-22 02:03:00,,0826.5,4.99,0.00,29.4,28.2,00.0,38.1,31.4,22.1,0000.0,0014.17,0005.54,0004.15
2022-07-22 02:04:00,,0826.5,5.02,0.00,29.5,28.3,00.0,38.1,31.5,21.9,0000.0,0014.19,0005.53,0004.14
2022-07-22 02:05:00,,0826.5,5.00,0.00,29.5,27.8,00.0,38.1,31.4,22.2,0000.0,0013.75,0005.49,0004.13
2022-07-22 02:06:00,,0826.5,4.99,0.00,29.4,27.1,00.0,38.0,31.3,22.4,0000.0,0013.64,0005.47,0004.14
2022-07-22 02:07:00,,0826.5,5.01,0.00,29.4,26.9,00.0,38.0,31.2,23.0,0000.0,0013.72,0005.48,0004.15
2022-07-22 02:08:00,,0826.5,5.00,0.00,29.3,27.0,00.0,38.0,31.1,23.5,0000.0,0014.17,0005.47,0004.15
2022-07-22 02:09:00,,0826.5,4.99,0.00,29.3,27.1,00.0,38.0,31.1,22.2,0000.0,0015.04,0005.48,0004.12
2022-07-22 02:10:00,,0826.5,5.00,0.00,29.3,27.3,00.0,38.0,31.1,21.8,0000.0,0015.22,0005.40,0004.08
2022-07-22 02:11:00,,0826.5,5.00,0.00,29.3,27.5,00.0,38.0,31.2,22.0,0000.0,0015.53,0005.34,0004.05
2022-07-22 02:12:00,,0826.5,4.99,0.00,29.3,27.7,00.0,38.0,31.3,21.8,0000.0,0015.47,0005.35,0004.02
2022-07-22 02:13:00,,0826.5,5.01,0.00,29.3,27.9,00.0,38.0,31.3,21.8,0000.0,0016.27,0005.35,0004.01
2022-07-22 02:14:00,,0826.5,4.99,0.00,29.4,28.1,00.0,38.1,31.4,20.9,0000.0,0015.16,0005.30,0003.99
2022-07-22 02:15:00,,0826.5,5.01,0.00,29.4,28.3,00.0,38.1,31.4,20.9,0000.0,0015.15,0005.27,0003.97
2022-07-22 02:16:00,,0826.5,5.01,0.00,29.5,28.3,00.0,38.1,31.5,21.1,0000.0,0015.29,0005.27,0003.95
2022-07-22 02:17:00,,0826.5,5.00,0.00,29.5,27.6,00.0,38.0,31.4,20.6,0000.0,0015.40,0005.27,0003.93
2022-07-22 02:18:00,,0826.5,4.99,0.00,29.4,27.0,00.0,38.0,31.3,21.0,0000.0,0015.26,0005.25,0003.90
2022-07-22 02:19:00,,0826.5,5.00,0.00,29.4,26.8,00.0,38.0,31.2,21.1,0000.0,0014.96,0005.23,0003.88
2022-07-22 02:20:00,,0826.5,5.00,0.00,29.3,26.9,00.0,38.0,31.1,21.2,0000.0,0014.96,0005.20,0003.89
2022-07-22 02:21:00,,0826.5,5.00,0.00,29.3,27.1,00.0,38.0,31.1,20.9,0000.0,0015.27,0005.20,0003.90
2022-07-22 02:22:00,,0826.5,5.01,0.00,29.2,27.3,00.0,38.0,31.1,20.7,0000.0,0014.46,0005.20,0003.91
2022-07-22 02:23:00,,0826.5,5.00,0.00,29.3,27.5,00.0,38.0,31.2,20.7,0000.0,0014.08,0005.18,0003.91
2022-07-22 02:24:00,,0826.5,5.00,0.00,29.3,27.7,00.0,38.0,31.2,20.9,0000.0,0013.38,0005.17,0003.92
2022-07-22 02:25:00,,0826.5,4.99,0.00,29.3,27.9,00.0,38.0,31.3,21.3,0000.0,0013.36,0005.17,0003.93
2022-07-22 02:26:00,,0826.5,5.01,0.00,29.3,28.1,00.0,38.0,31.3,21.2,0000.0,0013.70,0005.23,0003.95
2022-07-22 02:27:00,,0826.5,4.99,0.00,29.4,28.2,00.0,38.1,31.4,21.5,0000.0,0014.15,0005.26,0003.97
2022-07-22 02:28:00,,0826.5,5.01,0.00,29.4,28.3,00.0,38.1,31.4,21.3,0000.0,0014.53,0005.22,0003.98
2022-07-22 02:29:00,,0826.6,5.00,0.00,29.4,27.8,00.0,38.0,31.4,21.4,0000.0,0014.59,0005.22,0004.00
2022-07-22 02:30:00,,0826.5,5.00,0.00,29.4,27.1,00.0,38.0,31.3,21.9,0000.0,0014.56,0005.28,0004.02
2022-07-22 02:31:00,,0826.5,5.00,0.00,29.4,26.9,00.0,38.0,31.2,21.7,0000.0,0013.77,0005.35,0004.04
2022-07-22 02:32:00,,0826.5,4.99,0.00,29.3,26.9,00.0,38.0,31.1,22.0,0000.0,0013.15,0005.39,0004.04
2022-07-22 02:33:00,,0826.5,5.01,0.00,29.2,27.1,00.0,38.0,31.0,22.3,0000.0,0013.36,0005.46,0004.04
2022-07-22 02:34:00,,0826.5,4.99,0.00,29.2,27.3,00.0,38.0,31.1,22.5,0000.0,0013.05,0005.46,0004.05
2022-07-22 02:35:00,,0826.5,5.00,0.00,29.2,27.5,00.0,38.0,31.1,22.5,0000.0,0013.07,0005.43,0004.04
2022-07-22 02:36:00,,0826.5,5.01,0.00,29.2,27.7,00.0,38.0,31.2,21.8,0000.0,0013.01,0005.41,0004.03
2022-07-22 02:37:00,,0826.5,5.01,0.00,29.3,27.8,00.0,38.0,31.2,21.4,0000.0,0012.59,0005.38,0004.04
2022-07-22 02:38:00,,0826.5,5.00,0.00,29.3,28.0,00.0,38.0,31.3,21.0,0000.0,0012.13,0005.34,0004.03
2022-07-22 02:39:00,,0826.5,4.99,0.00,29.3,28.1,00.0,38.0,31.3,21.0,0000.0,0011.95,0005.37,0004.02
2022-07-22 02:40:00,,0826.5,5.01,0.00,29.4,28.3,00.0,38.1,31.4,21.1,0000.0,0011.90,0005.39,0004.03
2022-07-22 02:41:00,,0826.5,4.99,0.00,29.4,28.4,00.0,38.1,31.5,21.1,0000.0,0011.54,0005.32,0004.03
2022-07-22 02:42:00,,0826.5,5.00,0.00,29.5,28.1,00.0,38.0,31.4,21.1,0000.0,0011.29,0005.30,0004.04
2022-07-22 02:43:00,,0826.5,5.00,0.00,29.4,27.3,00.0,38.0,31.3,21.2,0000.0,0011.95,0005.31,0004.06
2022-07-22 02:44:00,,0826.5,5.01,0.00,29.4,26.8,00.0,38.0,31.2,21.1,0000.0,0012.12,0005.31,0004.09
2022-07-22 02:45:00,,0826.5,5.00,0.00,29.3,26.8,00.0,38.0,31.1,21.0,0000.0,0012.48,0005.37,0004.11
2022-07-22 02:46:00,,0826.5,4.99,0.00,29.3,26.9,00.0,38.0,31.0,21.1,0000.0,0012.53,0005.44,0004.13
2022-07-22 02:47:00,,0826.5,5.00,0.00,29.2,27.1,00.0,38.0,31.1,20.9,0000.0,0013.14,0005.48,0004.16
2022-07-22 02:48:00,,0826.5,5.00,0.00,29.2,27.3,00.0,38.0,31.1,20.7,0000.0,0014.02,0005.56,0004.17
2022-07-22 02:49:00,,0826.5,4.99,0.00,29.2,27.5,00.0,38.0,31.2,20.4,0000.0,0014.86,0005.59,0004.18
2022-07-22 02:50:00,,0826.5,5.00,0.00,29.3,27.7,00.0,38.0,31.2,20.4,0000.0,0014.99,0005.59,0004.20
2022-07-22 02:51:00,,0826.5,5.00,0.00,29.3,27.9,00.0,38.0,31.2,20.3,0000.0,0015.21,0005.61,0004.22
2022-07-22 02:52:00,,0826.5,5.00,0.00,29.3,28.1,00.0,38.0,31.3,20.0,0000.0,0015.19,0005.61,0004.23
2022-07-22 02:53:00,,0826.5,5.00,0.00,29.3,28.2,00.0,38.0,31.4,19.9,0000.0,0015.44,0005.60,0004.23
2022-07-22 02:54:00,,0826.5,5.01,0.00,29.4,28.3,00.0,38.1,31.4,19.9,0000.0,0015.23,0005.61,0004.23
2022-07-22 02:55:00,,0826.6,5.00,0.00,29.4,28.4,00.0,38.1,31.5,19.7,0000.0,0014.91,0005.55,0004.22
2022-07-22 02:56:00,,0826.6,5.00,0.00,29.5,28.0,00.0,38.1,31.4,19.8,0000.0,0014.54,0005.48,0004.21
2022-07-22 02:57:00,,0826.5,4.99,0.00,29.4,27.2,00.0,38.0,31.3,19.8,0000.0,0014.62,0005.44,0004.20
2022-07-22 02:58:00,,0826.5,5.01,0.00,29.4,26.8,00.0,38.0,31.2,19.9,0000.0,0014.59,0005.45,0004.19
2022-07-22 02:59:00,,0826.5,4.99,0.00,29.3,26.8,00.0,38.0,31.1,20.1,0000.0,0013.74,0005.37,0004.18
